Location: Asheville, NC
(35.6000°N, 82.5500°W)
Time: 18:02:16
(UTC-04:00)

Vanguard 1 - Pass Details

Date: 15 December 2017
Orbit: 650 x 3832 km, 34.2° (Epoch: 16 July)

Event Time Altitude Azimuth Distance (km) Brightness Sun altitude
Rises 11:03:59 0° 261° (W) 7,901 14.6 28.0°
Reaches altitude 10° 11:09:42 10° 261° (W) 6,693 14.3 28.4°
Maximum altitude 11:30:26 85° 177° (S) 2,545 12.8 29.7°
Drops below altitude 10° 11:41:44 10° 90° (E) 3,949 13.4 30.2°
Sets 11:44:12 0° 90° (E) 4,633 13.7 30.3°
